Regional Weather Roundup
Issued by NWS Jackson, KY

Home | Current Version | Previous Version | Graphics & Text | Print | Product List | Glossary Off
Versions: 1 2 3 4 5 6 7 8 9 10 11 12 13 14 15 16 17 18 19 20 21 22 23 24 25 26 27 28 29 30 31 32 33 34 35 36 37 38 39 40 41 42 43 44 45 46 47 48 49 50

300
ASUS43 KJKL 260310
RWRJKL

EAST KENTUCKY HOURLY WEATHER ROUNDUP
NATIONAL WEATHER SERVICE JACKSON KY
1100 PM EDT THU AUG 25 2016

NOTE: "FAIR" INDICATES FEW OR NO CLOUDS BELOW 12,000 FEET WITH
NO SIGNIFICANT WEATHER AND/OR OBSTRUCTIONS TO VISIBILITY.

* THESE REPORTS ARE NOT UNDER NWS QUALITY CONTROL AND MAY NOT
  REPORT WEATHER SUCH AS PRECIPITATION AND FOG.

KYZ079-080-083-085-087-088-110-112-115-119-120-260400
...EASTERN KENTUCKY...

CITY           SKY/WX    TMP DP  RH WIND       PRES   REMARKS
JACKSON        CLEAR     77  72  84 CALM      30.13S
LONDON         CLOUDY    76  72  87 CALM      30.13S
SOMERSET*      PTCLDY    73  73 100 CALM      30.13S
MONTICELLO*    PTCLDY   N/A N/A N/A W7        30.14R
WILLIAMSBURG*  CLOUDY    75  75 100 CALM      30.13S
MIDDLESBORO*   CLEAR     73  73  99 CALM      30.15R
HARLAN APT*    MOCLDY    73  70  88 CALM      30.16S
PIKE CO APT*     N/A     77  73  86 CALM      30.14S
BIG SANDY APT* CLEAR     79  73  82 CALM      30.13R
MOREHEAD APT*  CLEAR     77  72  83 S3        30.12S
$$

KYZ035-036-041-042-044-050-067-078-099-260400
...CENTRAL KENTUCKY...

CITY           SKY/WX    TMP DP  RH WIND       PRES   REMARKS
MT STERLING*   CLEAR    N/A N/A N/A CALM      30.12S
FLEMING/MASON* CLEAR     77  70  79 SW6       30.10S
DANVILLE*      PTCLDY    73  72  94 CALM      30.12F
LEXINGTON      PTCLDY    77  72  84 SW6       30.10F
FRANKFORT      PTCLDY    75  69  81 SW3       30.08S
LOUISVILLE     PTCLDY    81  71  71 SW3       30.07S
LEBANON*         N/A     79  73  83 CALM      30.11S
GLASGOW*       CLEAR     75  75 100 CALM      30.10F
BOWLING GREEN  CLEAR     80  75  84 CALM      30.09S
$$

KYZ091>093-OHZ055-061-077-WVZ005-015-034-035-042-260400
...SOUTHERN OHIO/WEST VIRGINIA...

CITY           SKY/WX    TMP DP  RH WIND       PRES   REMARKS
COVINGTON      CLEAR     79  73  82 SW5       30.08S
COLUMBUS       PTCLDY    80  71  74 W6        30.05S
DAYTON         PTCLDY    76  71  85 NW5       30.09R
WILMINGTON     CLEAR     76  73  91 SW5       30.08S
HUNTINGTON     CLEAR     77  73  87 SW3       30.08S
CHARLESTON     PTCLDY    76  72  87 CALM      30.09S
PINEVILLE*     CLEAR     71  68  89 MISG      30.21R FOG
BECKLEY        CLEAR     72  68  87 S3        30.20S
BLUEFIELD      CLEAR     72  68  87 W5        30.24S
LOGAN CO APT*    N/A     75  73  94 CALM      30.13S
$$

VAZ002-007-008-TNZ017-027-036-066-071-260400
...SOUTHWEST VIRGINIA/EAST TENNESSEE...

CITY           SKY/WX    TMP DP  RH WIND       PRES   REMARKS
WISE*          CLEAR     72  68  88 CALM      30.24R
JONESVILLE*      N/A     73  72  94 CALM      30.17S
ABINGDON*      CLEAR     74  72  93 CALM      30.19S
BRISTOL        PTCLDY    75  71  87 CALM      30.15S
MORRISTOWN*    CLEAR     79  72  78 CALM      30.13S
OAK RIDGE      CLEAR     78  73  84 CALM      30.13S
CROSSVILLE     CLEAR     73  71  93 CALM      30.19R
NASHVILLE      PTCLDY    80  75  84 CALM      30.10S
$$

...KEY TO REMARKS...
VSB - VISIBILITY IN MILES
WCI - WIND CHILL INDEX
HX  - HEAT INDEX

$$




USA.gov is the U.S. government's official web portal to all federal, state and local government web resources and services.